Find Starlink 32788

NORAD ID: 62502 Int'l Des: 2025-003 Owner: SPXS Country: US Constellation: starlink operational
LEOCIRCULAR

当前视图

正在加载3D地球...

About Starlink 32788

Starlink 32788 (NORAD 62502) is a starlink constellation satellite (v2 mini) launched Jan 6, 2025 by SPXS of US. It operates in LEO, CIRCULAR orbit with a mass of 730.00 kg.

关于 Starlink 32788

正在加载描述...

即将过境

Passes for default location (London). Set your location on the main map for personalized predictions.

高度历史

Loading altitude history...

两行轨道根数

1 62502U 25003R 26169.45716148 .00013710 00000-0 50645-3 0 9990
2 62502 42.9955 79.8065 0002829 268.9179 91.1348 15.27600136 81960
Epoch: Jun 18, 2026 • Age: 15 hours

当前状态

高度 482.6 km
速度 7.63 km/s
星下点 4.83°N, 43.91°W
发射日期 Jan 6, 2025
运行时间 1.4 years
类型 internet

技术详情

分类 Payload
质量 730.00 kg
干质量 700.00 kg
总质量 730.00 kg
长度 0.30 m
直径 4.10 m
跨度 29.00 m
形状 Box + pan
制造商 SPXS
平台类型 Starlink V2M
阶段状态 In Orbit
所有者/国家 SPXS/US

Most Searched